Domov               UVHVVR             MKGP            O straneh              
ZDRAVSTVENO VARSTVO RASTLIN
  MREŽA AGROMET. POSTAJ
 ► PROGNOSTIČNA OBVESTILA
AGROMETEOROLOŠKI PODATKI -
ARSO
OBVLADOVANJE TVEGANJ ZARADI
NEUGODNIH VREMENSKIH RAZMER
  ► NARAVNE NESREČE
  ► SUŠA/MOČA
  ► NAMAKANJE
  ► ŽLED (gozdarstvo)
KARTOGRAFSKI PRIKAZI
SPLETNE POVEZAVE
PROJEKTI IN PUBLIKACIJE

AGROMETEOROLOŠKA MREŽA: VREMENSKE POSTAJE IN FENOLOŠKA OPAZOVANJA

Pregled podatkov za lokacijo Kamnik, meteorološka postaja 25045

Pregled senzorjev na lokaciji

ID Ime Zadnja
vrednost
Datum
zadnje
spremembe
Tip
senzorja
377 Omočenost lista (U) 2 U 15.12.2017 20:00 A730WET
378 Padavine (mm) 0,8 mm 15.12.2017 20:00 Generic 0.2 mm
379 Temperatura 2 m (°C) 4,13 °C 15.12.2017 20:00 Generic -40 - +60 °C
380 Relativna vlaga 2 m (% RH) 83,61 % RH 15.12.2017 20:00 Generic 0 - 100 %

Pregled podatkov zadnjih 24 ur

Zap.
št.
Datum in čas Kamnik
Omočenost
lista
Padavine Relativna
vlaga
2
m
Temperatura
2
m
0 15.12.2017 20:00 2 0,8 83,61 4,13
1 15.12.2017 19:30 3 0,8 82,52 4,4
2 15.12.2017 19:00 8 0,8 79,17 5,47
3 15.12.2017 18:30 10 0,2 80,54 6,08
4 15.12.2017 18:00 7 0 90,72 6,59
5 15.12.2017 17:30 6 0,6 97,36 6,5
6 15.12.2017 17:00 4 0,8 94,6 6,76
7 15.12.2017 16:30 3 0 94,46 6,89
8 15.12.2017 16:00 2 0,2 95,41 6,91
9 15.12.2017 15:30 3 0,2 95,9 7,08
10 15.12.2017 15:00 4 1 99,39 6,98
11 15.12.2017 14:30 4 1,8 99,93 6,91
12 15.12.2017 14:00 6 1,2 99,93 7,03
13 15.12.2017 13:30 5 1,8 99,93 7,06
14 15.12.2017 13:00 5 2 99,54 7,13
15 15.12.2017 12:30 9 1,4 98,9 7,13
16 15.12.2017 12:00 9 0,6 99,17 7,3
17 15.12.2017 11:30 8 2,6 99,93 7,11
18 15.12.2017 11:00 7 1,6 99,93 7,08
19 15.12.2017 10:30 9 1,8 99,93 6,84
20 15.12.2017 10:00 10 0,2 99,93 6,76
21 15.12.2017 09:30 9 0,2 99,93 6,62
22 15.12.2017 09:00 9 0,2 99,93 6,35
23 15.12.2017 08:30 10 0,6 99,93 6,15
24 15.12.2017 08:00 9 0,2 99,93 6,11
25 15.12.2017 07:30 9 0,2 99,93 6,03
26 15.12.2017 07:00 9 0,2 99,93 6,03
27 15.12.2017 06:30 8 0,2 99,93 6,11
28 15.12.2017 06:00 9 0,2 99,93 6,28
29 15.12.2017 05:30 9 0,6 99,93 5,91
30 15.12.2017 05:00 10 0,2 99,93 5,74
31 15.12.2017 04:30 10 0 99,93 5,57
32 15.12.2017 04:00 10 0,2 99,93 5,57
33 15.12.2017 03:30 10 0 99,93 5,69
34 15.12.2017 03:00 10 0 99,93 5,62
35 15.12.2017 02:30 10 0,2 99,93 5,64
36 15.12.2017 02:00 10 0 99,93 5,62
37 15.12.2017 01:30 10 0,2 99,93 5,49
38 15.12.2017 01:00 10 0,4 99,93 5,42
39 15.12.2017 00:30 10 0 99,93 5,25
40 15.12.2017 00:00 10 0 99,93 5,2
41 14.12.2017 23:30 10 0,4 99,93 5,1
42 14.12.2017 23:00 10 0 99,93 4,93
43 14.12.2017 22:30 9 0 99,78 4,93
44 14.12.2017 22:00 7 0 99,54 5,1
45 14.12.2017 21:30 8 0 98,75 5,23
46 14.12.2017 21:00 4 0,2 98,02 5,37
© 2011 Ministrstvo za kmetijstvo, gozdarstvo in prehrano. Vse pravice pridržane.